User: anonymous   Login
Location: La Vergne
(36.0160°N, 86.5820°W)
Time: 01:09:35
(UTC-05:00)
Language:

Cosmos 2341 Rocket - Orbit

View from above orbital plane
View from above orbital plane
View from above satellite
View from above satellite

Ground track
Ground track

The orbit data is extracted from the following two-line orbital elements,

1 24773U 97017B   18197.79651394  .00000060  00000-0  48491-4 0  9993
2 24773  82.9214  81.1352 0023077 286.5753 140.0169 13.73608107 65071
Epoch (UTC): 16 July 2018 19:06:58
Eccentricity: 0.0023077
inclination: 82.9214°
perigee height: 969 km
apogee height: 1003 km
right ascension of ascending node: 81.1352°
argument of perigee: 286.5753°
revolutions per day: 13.73608107
mean anomaly at epoch: 140.0169°
orbit number at epoch: 6507

The dashed part of the orbit path shows where the satellite is in the earth's shadow,  

DLR